Regional Weather Roundup
Issued by NWS

Home | Current Version | Previous Version | Text Only | Print | Product List | Glossary Off
Versions: 1 2 3 4 5 6 7 8 9 10 11 12 13 14 15 16 17 18 19 20 21 22 23 24 25 26 27 28 29 30 31 32 33 34 35 36 37 38 39 40 41 42 43 44 45 46 47 48 49 50

000
ASUS43 KDMX 020906
RWRIA

WEATHER ROUNDUP FOR IOWA
NATIONAL WEATHER SERVICE DES MOINES IA
300 AM CST FRI DEC 02 2016

NOTE: "FAIR" INDICATES FEW OR NO CLOUDS BELOW 12,000 FEET WITH NO
SIGNIFICANT WEATHER AND/OR OBSTRUCTIONS TO VISIBILITY.

* - THESE STATIONS ARE NOT NWS STATIONS...THUS NOT UNDER NWS
QUALITY CONTROL.  THEY ALSO DO NOT REPORT WEATHER SUCH
AS PRECIPITATION OR FOG.

IAZ001>003-012>014-020>022-031>034-043>046-021000-
   NORTHWEST IOWA

CITY           SKY/WX    TMP DP  RH WIND       PRES   REMARKS
CARROLL *      CLOUDY    34  32  93 W7        30.13R WCI  28
CHEROKEE *     CLOUDY    33  33  99 NW3       30.13R
DENISON *      CLOUDY    32  30  93 W5        30.12R WCI  27
LE MARS *      CLOUDY    34  32  93 W5        30.15R WCI  30
ORANGE CITY *  CLOUDY    32  32 100 CALM      30.12R FOG
SHELDON *      CLOUDY    32  32 100 CALM      30.11R
SIOUX CITY     LGT SNOW  35  32  88 W5        30.16R FOG     WCI  31
SPENCER        CLOUDY    33  31  92 NW10      30.12R WCI  25
STORM LAKE *   CLOUDY    32  30  93 NW6       30.12R WCI  26
$$

IAZ055>058-069>071-079>083-090>094-021000-
   SOUTHWEST IOWA

CITY           SKY/WX    TMP DP  RH WIND       PRES   REMARKS
ATLANTIC *     CLOUDY    34  30  86 W5        30.14S WCI  30
AUDUBON *      CLOUDY    34  28  80 CALM      30.14R
CLARINDA *       N/A     28  28 100 CALM      30.17S
COUNCIL BLFS * CLOUDY    32  28  86 W3        30.15R
CRESTON *      CLOUDY    32  28  86 W7        30.14S WCI  26
HARLAN  *      CLOUDY    32  30  93 W6        30.17S WCI  26
LAMONI         MOCLDY    29  26  89 W6        30.13R WCI  23
RED OAK *      CLOUDY    30  28  93 CALM      30.16R
SHENANDOAH *   MOCLDY    30  28  93 CALM      30.17R
$$

IAZ047>049-059>061-072>074-084-021000-
   CENTRAL IOWA

CITY           SKY/WX    TMP DP  RH WIND       PRES   REMARKS
AMES           CLOUDY    35  34  96 W6        30.13R WCI  30
ANKENY *       CLOUDY    36  34  93 W7        30.14R WCI  30
BOONE *        CLOUDY    34  32  93 W8        30.11R WCI  27
CHARITON *       N/A     34  30  86 W6        30.12S WCI  29
DES MOINES     CLOUDY    36  31  82 NW8       30.13R WCI  30
GRINNELL*      CLOUDY    34  32  92 W6        30.11R WCI  29
KNOXVILLE *    CLOUDY    36  30  80 W7        30.12R WCI  30
MARSHALLTOWN   CLOUDY    34  33  96 W7        30.11R WCI  28
NEWTON *       CLOUDY    34  32  93 W7        30.12R WCI  28
PELLA *        CLOUDY    36  32  85 W5        30.14S WCI  32
PERRY *        CLOUDY    33  33  98 W7        30.14R WCI  27
$$

IAZ004>006-015-016-023>025-035-036-021000-
   NORTH CENTRAL IOWA

CITY           SKY/WX    TMP DP  RH WIND       PRES   REMARKS
ALGONA *       CLOUDY    34  30  86 N7        30.11R WCI  28
CLARION *      CLOUDY    34  34 100 NW8       30.11R WCI  27
ESTHERVILLE    CLOUDY    31  29  92 NW10      30.11R WCI  22
FORT DODGE *   CLOUDY    34  28  80 NW5       30.12R WCI  30
MASON CITY     CLOUDY    32  28  85 NW14      30.11R WCI  22
FOREST CITY *  CLOUDY    32  32 100 NW9       30.10R WCI  24
WEBSTER CITY * CLOUDY    34  34 100 W8        30.10R WCI  27
IOWA FALLS *   CLOUDY    35  33  94 W7        30.11R WCI  29
$$

IAZ007>011-017>019-026>030-037>042-050>054-066-021000-
   NORTHEAST IOWA

CITY           SKY/WX    TMP DP  RH WIND       PRES   REMARKS
CEDAR RAPIDS   CLOUDY    34  34 100 NW8       30.09R WCI  27
CHARLES CITY * CLOUDY    34  34 100 W9        30.08S WCI  26
CLINTON *      CLOUDY    36  34  92 W8        30.09R WCI  30
DECORAH *      CLOUDY    34  32  93 NW6       30.05R WCI  29
DUBUQUE        CLOUDY    34  33  96 W8        30.06R WCI  27
MONTICELLO *   CLOUDY    36  34  93 MISG      30.08R
OELWEIN *      CLOUDY    34  34 100 W8        30.08R WCI  27
WATERLOO       CLOUDY    35  32  88 W7        30.09R WCI  29
$$

IAZ064-065-067-068-078-021000-
   EAST CENTRAL IOWA

CITY           SKY/WX    TMP DP  RH WIND       PRES   REMARKS
DAVENPORT      CLOUDY    36  33  89 W8        30.09R WCI  30
IOWA CITY      CLOUDY    37  32  82 W8        30.12R WCI  31
MUSCATINE *    CLOUDY    37  32  81 W8        30.12R WCI  31
QUAD CITIES    CLOUDY    38  32  79 W8        30.10R WCI  32
$$

IAZ062-063-075>077-085>089-095>099-021000-
   SOUTHEAST IOWA

CITY           SKY/WX    TMP DP  RH WIND       PRES   REMARKS
BURLINGTON     CLOUDY    35  31  85 W6        30.12R WCI  30
FAIRFIELD *    CLOUDY    36  30  80 W6        30.12S WCI  31
FORT MADISON * CLOUDY    36  30  80 W5        30.14R WCI  32
KEOKUK *       CLOUDY    37  30  75 W5        30.13S WCI  34
OSKALOOSA *    CLOUDY    34  31  87 W8        30.13R WCI  28
CENTERVILLE *  CLOUDY    34  28  80 W6        30.14S WCI  29
OTTUMWA        CLOUDY    36  29  75 W9        30.12R WCI  29
WASHINGTON *   CLOUDY    36  32  87 W7        30.13R WCI  30
$$

ABBREVIATIONS USED IN REMARKS
   TC - TEMPERATURES IN CELSIUS
  WCI - WIND CHILL INDEX
   HX - HEAT INDEX
  VSB - VISIBILITY
$$





USA.gov is the U.S. government's official web portal to all federal, state and local government web resources and services.